Total_Precipitation_Accumulation
0.33 0.31 0.17 0.20 0.17 0.08 0.08 0.04 0.05 0.07 0.09 0.11 0.11 0.13 0.12 0.07 0.04 0.04 0.02 0.01 0.03 0.05 0.11 0.26 0.27 0.34 0.79 1.44 2.45 3.34 3.00 2.47 1.72 1.34 1.09 0.94 0.88 0.68 0.50 0.52 0.61 0.57 0.48
0.23 0.25 0.21 0.12 0.11 0.14 0.13 0.09 0.05 0.06 0.07 0.08 0.07 0.07 0.09 0.16 0.14 0.08 0.05 0.06 0.06 0.05 0.08 0.18 0.22 0.23 0.26 0.39 0.60 1.19 1.88 2.50 2.33 1.61 1.13 0.84 0.81 0.73 0.64 0.62 0.73 0.85 0.86
0.32 0.28 0.26 0.23 0.15 0.13 0.22 0.20 0.15 0.14 0.11 0.08 0.05 0.04 0.04 0.05 0.08 0.11 0.11 0.10 0.07 0.08 0.07 0.19 0.19 0.21 0.25 0.26 0.42 0.55 0.70 0.97 1.75 2.23 2.09 2.13 1.41 1.07 0.75 0.69 0.79 0.92 0.90
0.50 0.61 0.52 0.39 0.29 0.29 0.27 0.28 0.24 0.20 0.13 0.09 0.05 0.04 0.05 0.06 0.05 0.05 0.10 0.15 0.15 0.11 0.09 0.11 0.19 0.19 0.22 0.24 0.32 0.69 0.88 0.86 0.86 1.07 1.25 1.64 2.23 2.19 1.98 1.13 0.87 0.89 0.95
0.51 0.36 0.32 0.27 0.35 0.38 0.31 0.41 0.46 0.46 0.35 0.23 0.17 0.19 0.21 0.18 0.11 0.08 0.05 0.07 0.12 0.15 0.14 0.09 0.12 0.16 0.17 0.21 0.22 0.50 1.14 1.22 1.30 1.32 1.21 1.30 1.36 1.48 1.95 2.46 2.00 1.44 1.42
0.39 0.52 0.31 0.17 0.15 0.22 0.35 0.33 0.32 0.44 0.62 0.71 0.63 0.58 0.49 0.42 0.31 0.17 0.08 0.05 0.04 0.06 0.08 0.12 0.13 0.10 0.12 0.15 0.23 0.32 1.28 1.59 1.32 1.41 1.22 1.18 1.22 1.38 1.66 2.03 2.18 2.19 2.16
0.79 0.46 0.47 0.33 0.18 0.10 0.07 0.06 0.17 0.27 0.33 0.52 0.72 0.73 0.62 0.46 0.30 0.20 0.15 0.17 0.19 0.20 0.18 0.13 0.12 0.08 0.05 0.07 0.07 0.13 0.30 0.86 1.47 1.35 1.21 1.16 1.21 1.56 1.68 1.86 2.13 2.09 2.09
0.73 0.65 0.35 0.35 0.29 0.16 0.12 0.11 0.10 0.11 0.14 0.26 0.30 0.35 0.38 0.34 0.26 0.16 0.14 0.12 0.14 0.21 0.29 0.24 0.17 0.15 0.16 0.14 0.09 0.10 0.13 0.29 0.66 1.25 1.33 1.25 1.03 1.05 1.26 1.69 2.09 1.80 1.71
1.01 0.73 0.71 0.32 0.25 0.31 0.26 0.16 0.16 0.17 0.16 0.14 0.20 0.22 0.23 0.16 0.14 0.13 0.12 0.08 0.08 0.10 0.19 0.30 0.33 0.27 0.22 0.19 0.17 0.13 0.11 0.13 0.19 0.43 0.87 1.18 1.14 1.17 1.59 2.03 2.15 2.00 1.73
1.52 1.26 1.12 0.96 0.56 0.38 0.42 0.45 0.39 0.32 0.30 0.26 0.22 0.16 0.14 0.11 0.16 0.09 0.06 0.13 0.15 0.12 0.11 0.14 0.19 0.25 0.32 0.34 0.37 0.38 0.38 0.38 0.36 0.40 0.51 0.79 1.05 1.26 1.52 1.75 1.96 2.02 1.85
1.15 1.71 1.72 1.74 1.68 1.38 1.02 0.84 0.80 0.64 0.49 0.39 0.28 0.26 0.32 0.24 0.19 0.23 0.17 0.06 0.06 0.06 0.08 0.11 0.18 0.28 0.36 0.37 0.35 0.38 0.47 0.50 0.70 0.80 0.86 1.02 1.15 1.29 1.66 1.88 2.02 1.99 1.89
1.18 1.13 1.26 1.41 1.58 1.86 1.61 1.43 1.17 0.90 0.84 0.71 0.60 0.46 0.46 0.50 0.42 0.43 0.38 0.23 0.22 0.14 0.08 0.07 0.09 0.13 0.21 0.34 0.51 0.74 1.02 1.25 1.45 1.44 1.27 1.33 1.52 1.55 1.59 1.81 1.91 2.01 2.20
1.74 1.54 1.35 1.23 1.25 1.08 1.19 1.00 1.01 1.04 0.96 0.91 0.93 0.94 0.93 0.89 0.97 0.98 0.98 0.73 0.55 0.35 0.26 0.21 0.27 0.36 0.38 0.42 0.51 0.66 0.66 0.74 0.93 1.26 1.73 2.08 1.87 1.56 1.49 1.47 1.64 1.89 2.06
1.55 1.56 1.40 1.14 0.96 1.10 0.99 1.03 1.02 1.03 1.16 1.27 1.30 1.34 1.25 1.15 1.29 1.44 1.45 1.40 1.12 0.73 0.59 0.55 0.62 0.71 0.76 0.78 0.74 0.77 0.65 0.64 0.59 0.53 0.57 0.90 1.29 1.40 1.32 1.22 1.28 1.52 1.90
0.98 1.30 1.06 0.88 0.71 0.61 0.66 0.72 0.71 0.81 0.94 1.01 0.98 0.93 0.89 0.79 0.83 0.96 1.20 1.41 1.76 1.50 1.01 0.74 0.72 0.65 0.63 0.57 0.55 0.57 0.51 0.44 0.39 0.34 0.37 0.34 0.32 0.46 0.74 1.01 1.26 1.41 1.62
0.61 0.82 1.03 0.70 0.44 0.39 0.39 0.45 0.47 0.39 0.52 0.68 0.81 0.90 0.88 0.84 0.93 1.02 1.12 1.19 1.47 1.67 1.34 0.76 0.80 0.86 0.84 0.70 0.56 0.43 0.34 0.41 0.43 0.36 0.31 0.31 0.28 0.31 0.35 0.44 0.57 0.72 0.92
0.71 0.62 0.66 0.84 0.66 0.38 0.27 0.30 0.33 0.35 0.39 0.41 0.52 0.69 0.72 0.74 0.88 0.98 1.09 1.29 1.40 1.52 1.37 0.72 0.59 0.51 0.43 0.34 0.26 0.27 0.25 0.20 0.18 0.26 0.28 0.30 0.33 0.34 0.33 0.36 0.42 0.50 0.62
1.02 0.57 0.53 0.58 0.56 0.57 0.40 0.32 0.24 0.27 0.28 0.30 0.33 0.49 0.49 0.69 0.83 0.87 1.01 1.04 1.03 0.98 1.14 0.72 0.41 0.37 0.30 0.26 0.25 0.32 0.31 0.36 0.39 0.40 0.42 0.35 0.39 0.44 0.44 0.45 0.47 0.50 0.54
1.22 0.85 0.61 0.71 0.47 0.44 0.48 0.38 0.28 0.23 0.24 0.24 0.30 0.39 0.39 0.54 0.59 0.56 0.63 0.67 0.73 0.87 1.01 1.10 0.70 0.53 0.40 0.36 0.40 0.43 0.41 0.37 0.36 0.51 0.59 0.58 0.57 0.60 0.62 0.57 0.57 0.66 0.77
1.49 0.93 0.81 0.46 0.37 0.37 0.36 0.43 0.43 0.41 0.38 0.33 0.31 0.34 0.42 0.48 0.47 0.53 0.65 0.71 0.79 0.96 0.98 0.95 0.87 0.70 0.54 0.45 0.57 0.54 0.45 0.45 0.47 0.44 0.56 0.59 0.64 0.62 0.62 0.62 0.63 0.63 0.67
1.19 1.26 1.10 0.86 0.53 0.53 0.67 0.55 0.56 0.65 0.62 0.63 0.59 0.62 0.57 0.55 0.53 0.56 0.58 0.60 0.89 0.98 1.14 1.30 1.16 1.07 0.93 0.74 0.71 0.71 0.80 0.64 0.51 0.41 0.34 0.41 0.55 0.61 0.65 0.76 0.75 0.72 0.84
1.08 1.88 1.38 1.49 1.08 0.78 0.86 0.88 0.86 0.91 1.06 1.13 1.03 0.84 0.79 0.83 0.72 0.67 0.65 0.66 0.84 1.18 1.37 1.43 1.34 1.07 0.69 0.66 0.62 0.74 0.93 1.02 0.83 0.38 0.39 0.47 0.74 0.85 0.86 0.89 0.98 0.89 0.97
1.42 2.06 2.39 2.10 2.12 2.07 1.94 1.49 1.40 1.34 1.52 1.53 1.40 1.31 1.16 0.97 1.09 1.14 1.25 1.24 1.30 1.45 1.41 1.24 1.08 0.94 0.83 0.75 1.01 1.20 1.14 1.20 0.97 0.61 0.64 0.70 0.74 0.74 0.78 0.73 0.92 0.94 0.98
2.24 2.36 2.80 2.85 1.99 1.91 1.97 1.65 1.39 1.15 0.99 0.97 1.02 1.05 1.13 1.18 1.16 1.10 1.21 1.60 1.46 1.22 1.16 1.19 1.26 1.16 1.17 1.24 1.49 1.71 1.64 1.54 1.26 0.87 0.71 0.86 0.47 0.52 0.53 0.54 0.75 0.73 0.74
2.77 2.82 2.60 2.46 1.93 1.77 1.65 1.48 1.68 1.62 1.46 1.25 1.08 0.96 1.02 0.98 1.05 1.11 1.29 1.44 1.26 1.16 1.29 1.40 1.49 1.59 1.55 1.42 1.37 1.63 1.77 1.62 1.37 0.75 0.58 0.79 0.57 0.52 0.52 0.47 0.52 0.63 0.57
0.94 1.15 1.37 1.49 1.45 1.16 1.13 1.07 0.86 1.02 1.19 1.12 1.17 0.95 1.17 0.83 0.94 1.14 0.92 0.85 0.89 0.79 0.97 1.00 1.04 1.08 1.00 0.96 1.25 1.20 1.59 2.30 1.72 1.38 0.66 1.12 0.85 0.74 1.07 0.46 0.42 0.58 0.57